YB2SAT-13 Weather Reports


time (UTC)temp
F
wind
direction
speed
knots
gust
knots
rain 1hr
in
rain 24hr
in
rain mn
in
humidity
%
barometer
mb
20260505223101 80 110 2.6 0.0 0.00 0.00 0.00 94 1009.0
20260505221557 80 110 2.6 0.0 0.00 0.00 0.00 94 1009.0
20260505214600 80 110 2.6 0.0 0.00 0.00 0.00 94 1009.0
20260505213107 80 110 4.3 0.0 0.00 0.00 0.00 94 1009.0
20260505211602 80 110 4.3 0.0 0.00 0.00 0.00 94 1009.0
20260505204605 80 130 2.6 0.0 0.00 0.00 0.00 94 1009.0
20260505203101 80 130 2.6 0.0 0.00 0.00 0.00 96 1009.0
20260505201601 80 130 2.6 0.0 0.00 0.00 0.00 97 1009.0
20260505200110 80 140 2.6 0.0 0.00 0.00 0.00 100 1009.0
20260505194600 80 140 2.6 0.0 0.00 0.00 0.00 100 1009.0
20260505193111 81 0 0.9 0.0 0.00 0.00 0.00 100 1009.0
20260505191601 80 0 0.9 0.0 0.00 0.00 0.00 100 1009.0
20260505190104 81 0 1.7 0.0 0.00 0.00 0.00 100 1009.0
20260505184601 80 0 1.7 0.0 0.00 0.00 0.00 100 1009.0
20260505183101 81 200 6.1 0.0 0.00 0.00 0.00 89 1009.0
20260505181607 81 200 6.1 0.0 0.00 0.00 0.00 89 1010.0
20260505180103 81 200 6.1 0.0 0.00 0.00 0.00 89 1010.0
20260505174606 81 200 6.1 0.0 0.00 0.00 0.00 89 1010.0
20260505173104 81 200 6.1 0.0 0.00 0.00 0.00 89 1010.0
20260505171602 81 200 6.1 0.0 0.00 0.00 0.00 89 1010.0
20260505170108 81 200 6.1 0.0 0.00 0.00 0.00 89 1010.0
20260505164606 81 200 6.1 0.0 0.00 0.00 0.00 89 1010.0
20260505164601 81 200 6.1 0.0 0.00 0.00 0.00 89 1010.0
20260505163102 81 200 6.1 0.0 0.00 0.00 0.00 89 1011.0
20260505161601 81 200 6.1 0.0 0.00 0.00 0.00 89 1011.0
20260505160117 81 200 6.1 0.0 0.00 0.00 0.00 89 1011.0
20260505153105 82 200 6.1 0.0 0.00 0.00 0.00 89 1011.0
20260505151604 81 200 6.1 0.0 0.00 0.00 0.00 89 1011.0
20260505150111 82 200 6.1 0.0 0.00 0.00 0.00 89 1011.0
20260505140108 82 200 6.1 0.0 0.05 0.00 0.00 89 1011.0
20260505130105 81 200 6.1 0.0 0.07 0.00 0.00 89 1010.0
20260505124604 83 200 6.1 0.0 0.00 0.00 0.00 89 1010.0
20260505123106 82 200 6.1 0.0 0.00 0.00 0.00 89 1010.0
20260505121601 81 200 6.1 0.0 0.00 0.00 0.00 89 1009.0
20260505120103 80 200 6.1 0.0 0.00 0.00 0.00 89 1009.0
20260505114600 79 200 6.1 0.0 0.00 0.00 0.00 89 1009.0
20260505113106 78 200 6.1 0.0 0.00 0.00 0.00 89 1009.0
20260505111559 84 110 7.8 0.0 0.00 0.00 0.00 89 1008.0
20260505110107 84 110 7.8 0.0 0.00 0.00 0.00 89 1009.0
20260505101558 87 300 7.8 0.0 0.00 0.00 0.00 79 1008.0
20260505094557 87 320 7.0 0.0 0.00 0.00 0.00 74 1008.0
20260505093058 88 330 7.0 0.0 0.00 0.00 0.00 74 1008.0
20260505091557 87 330 7.0 0.0 0.00 0.00 0.00 74 1007.0
20260505090059 91 360 7.0 0.0 0.00 0.00 0.00 66 1007.0
20260505084556 90 360 7.0 0.0 0.00 0.00 0.00 72 1007.0
20260505083100 89 25 5.2 5.2 0.00 0.00 0.00 72 1007.0
20260505081601 90 51 4.3 5.2 0.00 0.00 0.00 70 1007.0
20260505080100 90 51 4.3 5.2 0.00 0.00 0.00 69 1007.0
20260505074600 91 51 4.3 5.2 0.00 0.00 0.00 69 1007.0
20260505073100 90 51 4.3 5.2 0.02 0.00 0.00 68 1007.0
20260505071601 92 66 5.2 5.2 0.00 0.00 0.00 68 1007.0
20260505070103 91 65 5.2 5.2 0.00 0.00 0.00 68 1008.0
20260505064601 92 66 5.2 5.2 0.00 0.00 0.00 66 1007.0
20260505063103 91 65 5.2 5.2 0.01 0.00 0.00 67 1008.0
20260505061601 91 76 6.1 6.1 0.00 0.00 0.00 69 1008.0
20260505060105 91 76 6.1 6.1 0.00 0.00 0.00 69 1008.0
20260505054601 91 76 6.1 6.1 0.00 0.00 0.00 69 1008.0
20260505053104 91 69 4.3 4.3 0.01 0.00 0.00 69 1008.0
20260505051602 90 67 5.2 5.2 0.00 0.00 0.00 72 1009.0
20260505050108 90 67 5.2 5.2 0.00 0.00 0.00 70 1009.0
20260505041603 90 71 5.2 5.2 0.00 0.00 0.00 74 1010.0
20260505040109 90 79 5.2 6.1 0.00 0.00 0.00 71 1010.0
20260505034604 89 71 5.2 5.2 0.00 0.00 0.00 73 1010.0
20260505033110 89 79 4.3 5.2 0.00 0.00 0.00 75 1011.0
20260505031605 89 79 4.3 5.2 0.00 0.00 0.00 79 1011.0
20260505030113 89 79 4.3 5.2 0.00 0.00 0.00 75 1011.0
20260505024603 89 88 4.3 5.2 0.00 0.00 0.00 78 1011.0
20260505023110 88 93 3.5 5.2 0.00 0.00 0.00 81 1011.0
20260505021605 87 93 3.5 5.2 0.00 0.00 0.00 83 1011.0
20260505020120 88 100 4.3 5.2 0.00 0.00 0.00 80 1011.0
20260505014609 87 93 3.5 5.2 0.00 0.00 0.00 83 1011.0
20260505013116 87 117 4.3 6.1 0.00 0.00 0.00 85 1011.0
20260505011606 86 114 3.5 5.2 0.00 0.00 0.00 88 1011.0
20260505010117 85 114 3.5 5.2 0.00 0.00 0.00 85 1011.0
20260505004608 85 114 3.5 5.2 0.00 0.00 0.00 88 1011.0
20260505003117 84 114 3.5 5.2 0.00 0.00 0.00 87 1011.0
20260505001605 83 135 3.5 5.2 0.00 0.00 0.00 91 1010.0
20260505000115 83 135 3.5 5.2 0.00 0.00 0.00 91 1010.0
20260504234606 83 134 2.6 4.3 0.00 0.00 0.00 92 1010.0
20260504233115 83 134 2.6 4.3 0.00 0.00 0.00 92 1010.0
20260504231608 83 155 3.5 4.3 0.00 0.00 0.00 93 1009.0
20260504230123 83 155 3.5 4.3 0.00 0.00 0.00 93 1009.0
20260504224605 82 155 3.5 4.3 0.00 0.00 0.00 93 1009.0